Simultaneous Nadir Overpasses (SNOs) Predictions

Prediction of SNOs between METOP-A and NOAA-19 Satellite Orbit:

Table of predicted SNOs for the next 14.0 days since TLE Epoch: 1/20/2012
Index Date Time (METOP-A) METOP-A Lat,Lon NOAA-19 Lat,Lon Distance(km) Time Diff (sec)
1 01/29/2012 10:13:09 75.07, 24.07 75.05, 14.40 276.78 44
2 01/29/2012 11:04:11 -74.11,-171.20 -74.10,-175.76 138.77 62
3 01/29/2012 11:55:07 73.29, -5.80 73.27, -6.54 23.86 73
4 01/29/2012 12:45:53 -73.10, 161.11 -73.09, 161.10 0.60 59
5 01/29/2012 13:36:33 73.07, -31.62 73.05, -31.56 2.83 38
6 01/29/2012 14:27:15 -73.08, 135.73 -73.06, 135.64 3.44 16
7 01/29/2012 15:17:55 73.05, -56.99 73.02, -57.03 3.30 5
8 01/29/2012 16:08:38 -73.01, 110.25 -72.99, 110.28 2.90 25
9 01/29/2012 16:59:18 72.98, -82.48 73.00, -82.49 1.54 47
10 01/29/2012 17:50:01 -72.94, 84.76 -72.96, 84.82 2.65 67
11 01/29/2012 18:40:52 72.35,-109.11 72.42,-106.79 78.33 67
12 01/29/2012 19:31:51 -71.50, 56.60 -71.58, 62.06 192.35 55




NCC Satellite Simultaneous Nadir Overpasses (SNOs) Prediction Service
